Skip Page Navigation
NASA JPL Caltech
NASA Logo - Jet Propulsion Laboratory + View the NASA Portal
+ Center for Near-Earth Object Studies
JPL Home Earth Solar System Stars & Galaxies Technology
JPL Solar System Dynamics
BODIES ORBITS EPHEMERIDES TOOLS PHYSICAL DATA DISCOVERY FAQ SITE MAP
JPL Small-Body Database Browser
Search: [ help ]  
123193 (2000 UD15)
Classification: Main-belt Asteroid          SPK-ID: 2123193
Ephemeris | Orbit Diagram | Orbital Elements | Mission Design | Physical Parameters | Discovery Circumstances | Close-Approach Data ]

[ show orbit diagram ]
Orbital Elements at Epoch 2459000.5 (2020-May-31.0) TDB
Reference: JPL 19 (heliocentric ecliptic J2000)
 Element Value Uncertainty (1-sigma)   Units 
e .1588048174342226 5.9022e-08  
a 2.56659298027666 1.4355e-08 au
q 2.159005650615867 1.5915e-07 au
i 3.922895548728448 3.9703e-06 deg
node 283.6415369960037 6.8742e-05 deg
peri 95.80330003093495 6.9948e-05 deg
M 301.0702929498912 1.4907e-05 deg
tp 2459246.347451928923
(2021-Jan-31.84745193)
6.3327e-05 TDB
period 1501.875490729237
4.11
1.26e-05
3.45e-08
d
yr
n .2397002962111071 2.011e-09 deg/d
Q 2.974180309937452 1.6635e-08 au
  Orbit Determination Parameters
   # obs. used (total)      653  
   data-arc span      7220 days (19.77 yr)  
   first obs. used      2000-10-25  
   last obs. used      2020-08-01  
   planetary ephem.      DE431  
   SB-pert. ephem.      SB431-N16  
   condition code      0  
   norm. resid. RMS      .55027  
   source      ORB  
   producer      Otto Matic  
   solution date      2020-Aug-25 10:19:37  

Additional Information
 Earth MOID = 1.16561 au 
 Jupiter MOID = 2.50972 au 
 T_jup = 3.411 
[ show covariance matrix ]

Ephemeris | Orbit Diagram | Orbital Elements | Mission Design | Physical Parameters | Discovery Circumstances | Close-Approach Data ]

Physical Parameter Table
Parameter Symbol Value Units Sigma Reference Notes
absolute magnitude H 15.6   n/a MPO436595  

123193 (2000 UD15)          Discovered 2000-Oct-25 by LINEAR at Socorro
Reference: 20060314/Numbers.arcLast Updated: 2006-03-23

[ show close-approach data ]
Alternate Designations
 2000 UD15 = 2002 EE46 = 2019 GK23 
Ephemeris | Orbit Diagram | Orbital Elements | Mission Design | Physical Parameters | Discovery Circumstances | Close-Approach Data ]
ABOUT SSD CREDITS/AWARDS PRIVACY/COPYRIGHT GLOSSARY LINKS
FirstGov 2020-Oct-22 01:38 UT
(server date/time)  
NASA Home Page
Site Manager:   Ryan S. Park
Webmaster  Alan B. Chamberlin